Location: Arthez
(43.0833°N, 0.2500°W)
Time: 22:32:24
(UTC+00:00)

deb Kosmos-970 - Pass Details

Date: 26 August 2022
Orbit: 900 x 1112 km, 65.8° (Epoch: 28 September)

Event Time Altitude Azimuth Distance (km) Brightness Sun altitude
Rises 22:05:45 0° 328° (NNW) 3,938 ? -30.4°
Reaches altitude 10° 22:08:29 10° 330° (NNW) 2,965 ? -30.7°
Enters shadow 22:15:26 76° 46° (NE) 1,108 ? -31.4°
